STARLINK-32373

Last updated on Mon Sep 30 2024 00:02:04 GMT+0000 (Coordinated Universal Time)

1 60923U 24154W 24273.24697228 -.00000626 00000+0 -31891-5 0 9996 2 60923 53.1615 209.8577 0002116 28.5093 331.6031 15.49301336 5735

Satellite not in orbit

STARLINK-32373